Location: Huntsville
(41.2590°N, 111.7678°W)
Time: 07:42:17
(UTC+00:00)

Vanguard 3 - Pass Details

Date: 15 June 2021
Orbit: 508 x 3261 km, 33.4° (Epoch: 29 July)

Event Time Altitude Azimuth Distance (km) Brightness Sun altitude
Rises 22:27:59 0° 264° (W) 4,563 11.7 48.5°
Reaches altitude 10° 22:31:55 10° 247° (WSW) 4,030 11.6 47.8°
Maximum altitude 22:38:54 19° 208° (SSW) 4,068 11.4 46.5°
Drops below altitude 10° 22:48:05 10° 172° (S) 5,495 11.5 44.8°
Sets 22:55:08 0° 158° (SSE) 6,914 11.8 43.4°
